Location: Newark
(7.0858°N, 171.3717°E)
Time: 07:42:56
(UTC+00:00)

S-56A Canister/Altair - Pass Details

Date: 27 November 2020
Orbit: 633 x 2499 km, 38.9° (Epoch: 27 January)

Event Time Altitude Azimuth Distance (km) Brightness Sun altitude
Rises 08:29:18 0° 271° (W) 5,775 12.9 -32.1°
Reaches altitude 10° 08:35:27 10° 290° (WNW) 4,424 11.9 -33.5°
Maximum altitude 08:41:59 16° 324° (NW) 3,463 10.9 -35.1°
Enters shadow 08:45:33 14° 349° (NNW) 3,393 10.7 -35.9°
Drops below altitude 10° 08:47:24 10° 0° (N) 3,519 - -36.3°
Sets 08:51:27 0° 22° (NNE) 4,136 - -37.2°
